Location: Baia de Cri?
(46.1667°N, 22.7167°E)
Time: 22:43:22
(UTC+00:00)

Cosmos 1408 Rocket - Pass Details

Date: 15 January 2026
Orbit: 594 x 623 km, 82.6° (Epoch: 13 February)

Event Time Altitude Azimuth Distance (km) Brightness Sun altitude
Rises 04:39:58 0° 209° (SSW) 2,862 6.8 -14.8°
Reaches altitude 10° 04:42:20 10° 218° (SW) 1,957 5.9 -14.4°
Maximum altitude 04:46:19 35° 285° (WNW) 980 4.0 -13.8°
Drops below altitude 10° 04:50:18 10° 352° (N) 1,955 5.9 -13.1°
Sets 04:52:40 0° 2° (N) 2,859 6.8 -12.7°
